User: anonymous   Login
Location: *
(35.2348°S, 91.3916°E)
Time: 11:16:30
(UTC+00:00)
Language:

Cosmos 1486 Rocket - Orbit

View from above orbital plane
View from above orbital plane
View from above satellite
View from above satellite

Ground track
Ground track

The orbit data is extracted from the following two-line orbital elements,

1 14241U 83079B   19348.82772944  .00000034  00000-0  20489-4 0  9991
2 14241  74.0602  15.5022 0018214 226.0289 133.9362 14.36178639903538
Epoch (UTC): 14 December 2019 19:51:55
Eccentricity: 0.0018214
inclination: 74.0602°
perigee height: 758 km
apogee height: 784 km
right ascension of ascending node: 15.5022°
argument of perigee: 226.0289°
revolutions per day: 14.36178639
mean anomaly at epoch: 133.9362°
orbit number at epoch: 90353

The dashed part of the orbit path shows where the satellite is in the earth's shadow,  

DLR